Weather History for Stephenville, TX

Change the Weather History Date:

Tuesday, April 1, 2014

  Actual Average Record
Temperature  
Mean Temperature 72 °F -  
Max Temperature 82 °F 73 °F 96 °F (1974)
Min Temperature 61 °F 47 °F 32 °F (1924)
Cooling Degree Days 6    
Growing Degree Days 22 (Base 50)    
Moisture  
Dew Point 59 °F    
Average Humidity 65    
Maximum Humidity 90    
Minimum Humidity 41    
Precipitation  
Precipitation 0.00 in - - ()
Sea Level Pressure  
Sea Level Pressure 29.92 in    
Wind  
Wind Speed 11 mph (SSE)    
Max Wind Speed 18 mph    
Max Gust Speed 23 mph    
Visibility 10 miles    
Events      
Averages and records for this station are not official NWS values.
T = Trace of Precipitation, MM = Missing Value Source: NWS Daily Summary

Daily Weather History Graph

Daily Weather History Graph

Search for Another Location

Airport:

Trip Planner

Search our weather history database for the weather conditions in past years. The results will help you decide how hot, cold, wet, or windy it might be!

Date:

Astronomy

Apr. 01, 2014 Rise Set
Actual Time 7:20 AM CDT 7:52 PM CDT
Civil Twilight 6:56 AM CDT 8:17 PM CDT
Nautical Twilight 6:27 AM CDT 8:46 PM CDT
Astronomical Twilight 5:57 AM CDT 9:15 PM CDT
Moon 8:31 AM CDT (4/1) 10:08 PM CDT (4/1)
Length of Visible Light 13h 20m
Length of Day
12h 31m
Waxing Crescent, 5% of the Moon is Illuminated
Apr 1
Waxing Crescent
Apr 7
First Quarter
Apr 15
Full
Apr 22
Last Quarter
Apr 29
New

Hourly Weather History & Observations

Time (CDT) Temp. Heat Index Dew Point Humidity Pressure Visibility Wind Dir Wind Speed Gust Speed Precip Events Conditions
12:15 AM 67.3 °F - 56.3 °F 68% 29.92 in 10.0 mi South 9.2 mph - N/A   Clear
12:35 AM 67.1 °F - 56.3 °F 68% 29.93 in 10.0 mi South 9.2 mph - N/A   Clear
12:55 AM 66.2 °F - 56.3 °F 70% 29.93 in 10.0 mi South 9.2 mph - N/A   Clear
1:15 AM 65.7 °F - 56.5 °F 72% 29.93 in 10.0 mi South 9.2 mph - N/A   Clear
1:35 AM 65.3 °F - 56.5 °F 73% 29.92 in 10.0 mi South 9.2 mph - N/A   Clear
1:55 AM 64.9 °F - 56.7 °F 74% 29.92 in 10.0 mi South 9.2 mph - N/A   Clear
2:15 AM 64.6 °F - 57.2 °F 77% 29.92 in 10.0 mi South 9.2 mph - N/A   Clear
2:35 AM 64.4 °F - 57.2 °F 77% 29.93 in 10.0 mi South 8.1 mph - N/A   Clear
2:55 AM 63.5 °F - 57.4 °F 80% 29.93 in 10.0 mi South 6.9 mph - N/A   Clear
3:15 AM 63.5 °F - 57.4 °F 80% 29.92 in 10.0 mi South 6.9 mph - N/A   Clear
3:35 AM 62.8 °F - 57.4 °F 82% 29.92 in 10.0 mi South 6.9 mph - N/A   Clear
3:55 AM 62.6 °F - 57.4 °F 83% 29.92 in 10.0 mi South 6.9 mph - N/A   Clear
4:15 AM 62.1 °F - 57.4 °F 85% 29.92 in 10.0 mi South 6.9 mph - N/A   Clear
4:35 AM 61.7 °F - 57.6 °F 86% 29.92 in 10.0 mi South 6.9 mph - N/A   Clear
4:55 AM 61.2 °F - 57.6 °F 88% 29.93 in 10.0 mi South 5.8 mph - N/A   Clear
5:15 AM 61.0 °F - 57.7 °F 89% 29.93 in 10.0 mi SSE 8.1 mph - N/A   Scattered Clouds
5:35 AM 62.2 °F - 59.2 °F 90% 29.93 in 10.0 mi SSE 9.2 mph - N/A   Mostly Cloudy
5:55 AM 63.0 °F - 59.9 °F 90% 29.93 in 10.0 mi South 10.4 mph - N/A   Overcast
6:15 AM 63.5 °F - 59.9 °F 88% 29.93 in 10.0 mi South 12.7 mph 16.1 mph N/A   Overcast
6:35 AM 63.9 °F - 60.1 °F 87% 29.94 in 10.0 mi South 13.8 mph 17.3 mph N/A   Overcast
6:55 AM 63.9 °F - 59.9 °F 87% 29.94 in 10.0 mi South 10.4 mph 17.3 mph N/A   Overcast
7:15 AM 63.9 °F - 59.5 °F 86% 29.95 in 10.0 mi South 10.4 mph - N/A   Overcast
7:35 AM 64.0 °F - 59.5 °F 85% 29.96 in 10.0 mi South 10.4 mph 16.1 mph N/A   Overcast
7:55 AM 64.4 °F - 59.5 °F 84% 29.96 in 10.0 mi South 11.5 mph - N/A   Overcast
8:15 AM 64.8 °F - 59.5 °F 83% 29.97 in 10.0 mi South 9.2 mph - N/A   Overcast
8:35 AM 65.5 °F - 59.7 °F 82% 29.98 in 10.0 mi South 11.5 mph 16.1 mph N/A   Overcast
8:55 AM 66.2 °F - 59.5 °F 79% 29.98 in 10.0 mi South 13.8 mph 18.4 mph N/A   Overcast
9:15 AM 66.7 °F - 59.5 °F 78% 29.98 in 10.0 mi South 11.5 mph 16.1 mph N/A   Overcast
9:35 AM 67.5 °F - 59.2 °F 75% 29.99 in 10.0 mi South 13.8 mph 18.4 mph N/A   Overcast
9:55 AM 67.8 °F - 59.2 °F 74% 30.00 in 10.0 mi South 9.2 mph - N/A   Overcast
10:15 AM 69.1 °F - 59.4 °F 71% 30.00 in 10.0 mi South 12.7 mph 18.4 mph N/A   Overcast
10:35 AM 70.3 °F - 59.0 °F 67% 30.00 in 10.0 mi South 10.4 mph 18.4 mph N/A   Mostly Cloudy
10:55 AM 70.7 °F - 59.4 °F 67% 30.00 in 10.0 mi South 15.0 mph 19.6 mph N/A   Scattered Clouds
11:15 AM 72.0 °F - 59.4 °F 64% 30.00 in 10.0 mi South 10.4 mph 17.3 mph N/A   Scattered Clouds
11:35 AM 72.7 °F - 59.2 °F 62% 30.00 in 10.0 mi SSE 13.8 mph 19.6 mph N/A   Scattered Clouds
11:55 AM 73.4 °F - 58.8 °F 60% 29.99 in 10.0 mi South 13.8 mph 19.6 mph N/A   Scattered Clouds
12:15 PM 74.3 °F - 58.8 °F 58% 29.99 in 10.0 mi SSE 13.8 mph 20.7 mph N/A   Clear
12:35 PM 75.4 °F - 59.0 °F 57% 29.98 in 10.0 mi South 11.5 mph 18.4 mph N/A   Clear
12:55 PM 75.9 °F - 59.2 °F 56% 29.97 in 10.0 mi SSE 12.7 mph 18.4 mph N/A   Clear
1:15 PM 77.2 °F - 59.0 °F 53% 29.97 in 10.0 mi SSE 13.8 mph 18.4 mph N/A   Clear
1:35 PM 78.1 °F - 58.8 °F 51% 29.96 in 10.0 mi South 11.5 mph - N/A   Clear
1:55 PM 78.3 °F - 58.3 °F 50% 29.95 in 10.0 mi South 10.4 mph 19.6 mph N/A   Clear
2:15 PM 80.2 °F 80.8 °F 58.8 °F 48% 29.94 in 10.0 mi South 12.7 mph 19.6 mph N/A   Clear
2:35 PM 81.1 °F 81.4 °F 58.5 °F 46% 29.93 in 10.0 mi South 11.5 mph 18.4 mph N/A   Clear
2:55 PM 81.5 °F 81.5 °F 57.9 °F 44% 29.92 in 10.0 mi South 10.4 mph 20.7 mph N/A   Clear
3:15 PM 82.2 °F 82.0 °F 57.9 °F 43% 29.91 in 10.0 mi South 15.0 mph 18.4 mph N/A   Clear
3:35 PM 82.6 °F 82.2 °F 57.0 °F 42% 29.89 in 10.0 mi South 12.7 mph 20.7 mph N/A   Clear
3:55 PM 82.8 °F 82.2 °F 57.0 °F 41% 29.88 in 10.0 mi South 13.8 mph 18.4 mph N/A   Clear
4:15 PM 82.6 °F 82.1 °F 56.5 °F 41% 29.87 in 10.0 mi SE 18.4 mph 23.0 mph N/A   Clear
4:35 PM 82.6 °F 82.2 °F 57.0 °F 42% 29.86 in 10.0 mi SSE 15.0 mph 20.7 mph N/A   Clear
4:55 PM 82.4 °F 82.0 °F 57.0 °F 42% 29.86 in 10.0 mi South 13.8 mph 21.9 mph N/A   Clear
5:15 PM 82.4 °F 82.0 °F 57.4 °F 42% 29.85 in 10.0 mi South 15.0 mph 19.6 mph N/A   Clear
5:35 PM 82.4 °F 82.0 °F 57.4 °F 42% 29.85 in 10.0 mi SSE 16.1 mph - N/A   Clear
5:55 PM 81.5 °F 81.5 °F 57.4 °F 44% 29.85 in 10.0 mi SSE 12.7 mph 18.4 mph N/A   Clear
6:15 PM 81.1 °F 81.3 °F 57.9 °F 45% 29.85 in 10.0 mi SSE 15.0 mph 20.7 mph N/A   Clear
6:35 PM 80.6 °F 81.0 °F 58.5 °F 47% 29.85 in 10.0 mi SSE 13.8 mph 18.4 mph N/A   Clear
6:55 PM 80.2 °F 80.8 °F 58.6 °F 48% 29.85 in 10.0 mi SSE 12.7 mph 18.4 mph N/A   Clear
7:15 PM 79.7 °F - 59.4 °F 50% 29.84 in 10.0 mi SE 11.5 mph 19.6 mph N/A   Clear
7:35 PM 79.0 °F - 59.4 °F 51% 29.84 in 10.0 mi SSE 10.4 mph 18.4 mph N/A   Clear
7:55 PM 78.1 °F - 59.2 °F 52% 29.83 in 10.0 mi SE 13.8 mph 19.6 mph N/A   Clear
8:15 PM 77.5 °F - 59.7 °F 54% 29.84 in 10.0 mi SE 13.8 mph 20.7 mph N/A   Clear
8:35 PM 77.0 °F - 59.9 °F 55% 29.83 in 10.0 mi SSE 16.1 mph 20.7 mph N/A   Clear
8:55 PM 76.5 °F - 59.9 °F 56% 29.84 in 10.0 mi SE 12.7 mph 19.6 mph N/A   Clear
9:15 PM 75.6 °F - 60.1 °F 59% 29.84 in 10.0 mi SE 13.8 mph 19.6 mph N/A   Clear
9:35 PM 75.2 °F - 60.4 °F 60% 29.85 in 10.0 mi SE 13.8 mph 20.7 mph N/A   Clear
9:55 PM 74.5 °F - 60.8 °F 62% 29.86 in 10.0 mi SE 15.0 mph 19.6 mph N/A   Clear
10:15 PM 73.8 °F - 61.2 °F 65% 29.87 in 10.0 mi SE 12.7 mph 18.4 mph N/A   Clear
10:35 PM 73.4 °F - 61.3 °F 66% 29.88 in 10.0 mi SE 11.5 mph 17.3 mph N/A   Clear
10:55 PM 73.0 °F - 61.3 °F 67% 29.88 in 10.0 mi SE 10.4 mph - N/A   Clear
11:15 PM 72.7 °F - 61.3 °F 67% 29.88 in 10.0 mi SE 12.7 mph - N/A   Clear
11:35 PM 72.5 °F - 61.7 °F 69% 29.88 in 10.0 mi SE 11.5 mph 17.3 mph N/A   Clear
11:55 PM 72.1 °F - 62.2 °F 71% 29.88 in 10.0 mi SSE 12.7 mph 16.1 mph N/A   Clear